Weather in Toktogul

Kyrgyzstan     41°52′18″N   72°56′15″E
В апреле 2022 года жителям России запретили посещать сайт meteo.paraplan.net по решению Генеральной прокуратуры. Аудитория сайта уменьшилась в 10 раз. Владельцы сайта не видят смысла в поддержке погодного сервера в таких условиях. Сайт будет закрыт в октябре.
temp.,
°C
wind,
m/s
gust,
m/s
humid.,
%
clouds,
%
prec.,
mm/h
press.,
hPa
HPBL,
m
4 october, tue
tue400:00+14sse224850 0.3 101820
03:00+12sse11457 0.0 101991
06:00+11se12469 0.0 102074
09:00+13n11417 0.0 1021301
12:00+14nw22412 0.0 1021625
15:00+17nnw223188 0.0 1017664
18:00+17w11321 0.0 101756
21:00+15s32380 0.0 101820
5 october, wed
wed500:00+14sse22430 0.0 102018
03:00+13sse22370 0.0 102062
06:00+12sse21380 0.0 1021120
09:00+14ne11330 0.0 1022273
12:00+14nw22350 0.0 1021652
15:00+17w23290 0.0 1018533
18:00+18ese00280 0.0 101740
21:00+15ssw33340 0.0 102026
6 october, thu
thu600:00+13sse223714 0.0 102218
03:00+12sse112679 0.0 1022116
06:00+12se112691 0.0 1022105
09:00+13ene11241 0.0 1023232
12:00+15nw21260 0.0 1021473
15:00+17wsw11271 0.0 1018528
18:00+18ssw22310 0.0 101724
21:00+16s11380 0.0 101911
7 october, fri
fri700:00+14sse11400 0.0 102114
03:00+13sse11400 0.0 102116
06:00+13sse11390 0.0 102118
09:00+14nne11290 0.0 1022190
12:00+16nw112813 0.0 1021408
15:00+19sw2127100 0.0 1017443
18:00+19s113059 0.0 101611
21:00+17sw223498 0.0 101912
8 october, sat
sat800:00+15sse11395 0.0 102011
03:00+14sse22400 0.0 102112
06:00+13se22380 0.0 102215
09:00+15n11270 0.0 1023179
12:00+16nw21260 0.0 1022457
15:00+19w12235 0.0 1018471
18:00+19sw12277 0.0 101712
21:00+16s32355 0.0 102015